DELTA 1 DEB, 7200

Orbit data source: Space-Track

DELTA 1 DEB, 7200 is space debris in SSO originally from a launch on Tue, 06 Nov 1973 UTC launched from the Air Force Western Test Range (AFWTR). Debris objects in space refer to the collection of defunct objects orbiting the Earth. Examples of debris include non-operational satellites, rocket bodies, and fragments generated from explosions, collisions, or faulty payload assembly.

Loading next visibility...
Identifier
7200, 1973-086FJ
Orbit
SSO
Country
Flag of USUS
Related business
Manufacturer
Unknown
Mission
Spacecraft
Bus & Motor
Unknown
Mass
Unknown
Launch date (UTC)
1973-11-06 (53 years ago)
Launch vehicle
Unknown
Launch site
Air Force Western Test Range (AFWTR)
Object type
Payload
Rocket body
Debris
Shape & HBR
Unknown shape, 0.1 m
Radar Cross Section
Medium (>0.1 m² and <1 m²)

Expand to show TLE details & history
Last TLE update: 21 hours ago

TLE from 21 hours ago
0 DELTA 1 DEB
1 07200U 73086FJ  26206.46227595 -.00000035  00000-0  84391-4 0  9997
2 07200 102.3945 189.3757 0294354 287.3707 230.5127 12.01984964306908
Epoch: 2026-07-25T11:05Z
TLE epoch observation values (Epoch: 2026-07-25T11:05:40.642Z)
Latitude
24.07072°
Longitude
-94.61057°
Altitude
1,829.26 km
Speed
6.905 km/s
True Right ascension
00h 59m 55s
True Declination
23° 57' 35"
Sunlit
Object was in daylight at epoch
Visualization orbit readout
Latitude
Unknown
Longitude
Unknown
Altitude
Unknown
Speed
Unknown
Apparent Right ascension
Unknown
Apparent Declination
Unknown
Sunlit
N/A
Visualization observer readout
Local Sidereal Time
21:18:08
Azimuth
Unknown
Elevation
Unknown
Doppler factor
Unknown
Orbital elements
Apogee altitude
1,906.52 km
Perigee altitude
1,432.741 km
Semi-major axis
8,047.767 km
Eccentricity
0.02944
Inclination
102.3945°
RAAN
189.3757°
Arg. of periapsis
287.3707°
True anomaly
227.9699°
Mean anomaly
230.5127°
Eccentric anomaly
229.23533°
Mean motion
3.00628 °/min
Orbital period
119.75 mins
BSTAR
0.000084391
Loading maneuver chart data...
Computing Atmospheric mass density...
Loading historical data...
Loading historical data...
Loading historical data...
Loading historical data...
Loading historical data...
Loading historical data...
Loading historical data...

Documentation

Showing up to 5 results
|